| time (UTC) | temp F | wind direction | speed knots | gust knots | rain 1hr in | rain 24hr in | rain mn in | humidity % | barometer mb |
| 20260906141221 | 86 | 307 | 1.7 | 1.7 | 0.00 | 0.00 | 0.00 | 72 | 1011.5 |
| 20260906140721 | 84 | 307 | 0.0 | 0.9 | 0.00 | 0.00 | 0.00 | 76 | 1011.4 |
| 20260906140216 | 83 | 307 | 0.0 | 0.9 | 0.00 | 0.00 | 0.00 | 78 | 1011.5 |
| 20260906135712 | 82 | 307 | 0.0 | 0.9 | 0.00 | 0.00 | 0.00 | 79 | 1011.9 |
| 20260906135208 | 82 | 307 | 1.7 | 1.7 | 0.00 | 0.00 | 0.00 | 80 | 1011.7 |
| 20260906134704 | 81 | 307 | 1.7 | 1.7 | 0.00 | 0.00 | 0.00 | 82 | 1012.0 |
| 20260906134159 | 80 | 305 | 2.6 | 2.6 | 0.00 | 0.00 | 0.00 | 83 | 1011.8 |
| 20260906133654 | 80 | 309 | 2.6 | 2.6 | 0.00 | 0.00 | 0.00 | 83 | 1011.8 |
| 20260906133150 | 80 | 312 | 0.9 | 0.9 | 0.00 | 0.00 | 0.00 | 83 | 1011.7 |
| 20260906132645 | 79 | 309 | 2.6 | 2.6 | 0.00 | 0.00 | 0.00 | 84 | 1011.8 |
| 20260906132141 | 79 | 320 | 1.7 | 1.7 | 0.00 | 0.00 | 0.00 | 84 | 1012.1 |
| 20260906131636 | 79 | 320 | 1.7 | 1.7 | 0.00 | 0.00 | 0.00 | 85 | 1011.9 |
| 20260906131131 | 78 | 318 | 0.9 | 0.9 | 0.00 | 0.00 | 0.00 | 85 | 1011.9 |
| 20260906130626 | 78 | 317 | 0.9 | 2.6 | 0.00 | 0.00 | 0.00 | 85 | 1011.7 |
| 20260906130121 | 78 | 3 | 0.9 | 0.9 | 0.00 | 0.00 | 0.00 | 86 | 1011.8 |
| 20260906125619 | 77 | 3 | 0.9 | 0.9 | 0.00 | 0.00 | 0.00 | 86 | 1012.0 |
| 20260906125118 | 77 | 4 | 0.9 | 0.9 | 0.00 | 0.00 | 0.00 | 86 | 1012.0 |
| 20260906124614 | 77 | 4 | 0.9 | 1.7 | 0.00 | 0.00 | 0.00 | 86 | 1012.1 |
| 20260906124108 | 77 | 4 | 0.9 | 0.9 | 0.00 | 0.00 | 0.00 | 86 | 1012.1 |
| 20260906123608 | 76 | 5 | 0.0 | 0.0 | 0.00 | 0.00 | 0.00 | 88 | 1012.2 |
| 20260906123103 | 76 | 5 | 0.0 | 0.9 | 0.00 | 0.00 | 0.00 | 90 | 1012.1 |
| 20260906122601 | 76 | 344 | 0.9 | 0.9 | 0.00 | 0.00 | 0.00 | 89 | 1011.9 |
| 20260906122058 | 76 | 347 | 0.0 | 0.0 | 0.00 | 0.00 | 0.00 | 91 | 1012.1 |
| 20260906121554 | 75 | 347 | 0.9 | 0.9 | 0.00 | 0.00 | 0.00 | 91 | 1011.7 |
| 20260906121051 | 75 | 341 | 2.6 | 2.6 | 0.00 | 0.00 | 0.00 | 92 | 1012.2 |
| 20260906120545 | 74 | 6 | 0.0 | 0.0 | 0.00 | 0.00 | 0.00 | 96 | 1011.8 |
| 20260906120043 | 74 | 6 | 0.9 | 0.9 | 0.00 | 0.00 | 0.00 | 96 | 1011.6 |
| 20260906115543 | 74 | 6 | 0.0 | 0.0 | 0.00 | 0.00 | 0.00 | 97 | 1011.5 |
| 20260906115038 | 74 | 6 | 0.0 | 0.9 | 0.00 | 0.00 | 0.00 | 97 | 1011.5 |
| 20260906114538 | 74 | 6 | 0.9 | 0.9 | 0.00 | 0.00 | 0.00 | 97 | 1011.6 |
| 20260906114033 | 74 | 6 | 0.9 | 0.9 | 0.00 | 0.00 | 0.00 | 97 | 1011.7 |
| 20260906113532 | 74 | 6 | 0.9 | 0.9 | 0.00 | 0.00 | 0.00 | 97 | 1011.8 |
| 20260906113028 | 74 | 6 | 0.9 | 0.9 | 0.00 | 0.00 | 0.00 | 97 | 1011.4 |
| 20260906112522 | 74 | 4 | 0.0 | 0.9 | 0.00 | 0.00 | 0.00 | 96 | 1011.7 |
| 20260906112019 | 74 | 4 | 0.9 | 0.9 | 0.00 | 0.00 | 0.00 | 96 | 1011.7 |
| 20260906111518 | 74 | 4 | 0.0 | 0.0 | 0.00 | 0.00 | 0.00 | 96 | 1011.7 |
| 20260906111014 | 74 | 4 | 0.0 | 0.0 | 0.00 | 0.00 | 0.00 | 96 | 1011.5 |
| 20260906110508 | 74 | 4 | 0.9 | 0.9 | 0.00 | 0.00 | 0.00 | 96 | 1011.6 |
| 20260906110008 | 74 | 4 | 0.0 | 0.9 | 0.00 | 0.00 | 0.00 | 96 | 1011.3 |
| 20260906105503 | 75 | 5 | 0.9 | 0.9 | 0.00 | 0.00 | 0.00 | 95 | 1011.3 |
| 20260906104959 | 75 | 2 | 0.9 | 0.9 | 0.00 | 0.00 | 0.00 | 95 | 1011.3 |
| 20260906104457 | 76 | 339 | 0.9 | 0.9 | 0.00 | 0.00 | 0.00 | 93 | 1011.2 |
| 20260906103957 | 75 | 340 | 0.9 | 0.9 | 0.00 | 0.00 | 0.00 | 93 | 1011.3 |
| 20260906103455 | 75 | 338 | 0.9 | 0.9 | 0.00 | 0.00 | 0.00 | 95 | 1011.2 |
| 20260906102950 | 75 | 4 | 0.0 | 0.9 | 0.00 | 0.00 | 0.00 | 96 | 1011.4 |
| 20260906102451 | 75 | 8 | 0.0 | 0.0 | 0.00 | 0.00 | 0.00 | 96 | 1011.3 |
| 20260906101951 | 75 | 8 | 0.0 | 0.9 | 0.00 | 0.00 | 0.00 | 95 | 1011.0 |
| 20260906101446 | 75 | 8 | 0.9 | 0.9 | 0.00 | 0.00 | 0.00 | 95 | 1011.2 |
| 20260906100946 | 75 | 8 | 0.0 | 0.0 | 0.00 | 0.00 | 0.00 | 95 | 1011.0 |
| 20260906100441 | 76 | 8 | 0.0 | 0.0 | 0.00 | 0.00 | 0.00 | 95 | 1011.3 |
| 20260906095936 | 76 | 8 | 0.0 | 0.9 | 0.00 | 0.00 | 0.00 | 94 | 1011.1 |
| 20260906095431 | 76 | 8 | 0.9 | 0.9 | 0.00 | 0.00 | 0.00 | 94 | 1011.2 |
| 20260906094926 | 75 | 9 | 0.9 | 1.7 | 0.00 | 0.00 | 0.00 | 96 | 1011.1 |
| 20260906094420 | 75 | 21 | 0.0 | 0.9 | 0.00 | 0.00 | 0.00 | 96 | 1011.2 |
| 20260906093916 | 75 | 28 | 0.0 | 0.0 | 0.00 | 0.00 | 0.00 | 97 | 1010.9 |
| 20260906093413 | 75 | 123 | 0.9 | 0.9 | 0.00 | 0.00 | 0.00 | 97 | 1011.4 |
| 20260906092913 | 75 | 123 | 0.0 | 0.0 | 0.00 | 0.00 | 0.00 | 97 | 1010.8 |
| 20260906092412 | 75 | 123 | 0.0 | 0.9 | 0.00 | 0.00 | 0.00 | 97 | 1010.9 |
| 20260906091908 | 75 | 123 | 0.0 | 0.9 | 0.00 | 0.00 | 0.00 | 97 | 1010.9 |
| 20260906091404 | 75 | 123 | 0.9 | 0.9 | 0.00 | 0.00 | 0.00 | 97 | 1010.9 |
| 20260906090900 | 75 | 123 | 0.0 | 0.9 | 0.00 | 0.00 | 0.00 | 97 | 1011.0 |
| 20260906090400 | 75 | 123 | 0.0 | 0.0 | 0.00 | 0.00 | 0.00 | 97 | 1011.0 |
| 20260906085854 | 75 | 123 | 0.0 | 0.0 | 0.00 | 0.00 | 0.00 | 98 | 1010.8 |
| 20260906085354 | 75 | 123 | 0.0 | 0.0 | 0.00 | 0.00 | 0.00 | 98 | 1011.1 |
| 20260906084848 | 75 | 123 | 0.0 | 0.0 | 0.00 | 0.00 | 0.00 | 98 | 1010.9 |
| 20260906084348 | 75 | 123 | 0.0 | 0.0 | 0.00 | 0.00 | 0.00 | 98 | 1010.8 |
| 20260906083842 | 75 | 123 | 0.0 | 0.0 | 0.00 | 0.00 | 0.00 | 98 | 1011.1 |
| 20260906083338 | 75 | 123 | 0.0 | 0.0 | 0.00 | 0.00 | 0.00 | 98 | 1010.9 |
| 20260906082838 | 75 | 123 | 0.0 | 0.9 | 0.00 | 0.00 | 0.00 | 98 | 1010.8 |
| 20260906082333 | 75 | 123 | 0.0 | 0.0 | 0.00 | 0.00 | 0.00 | 98 | 1010.9 |
| 20260906081829 | 75 | 123 | 0.0 | 0.0 | 0.00 | 0.00 | 0.00 | 97 | 1010.5 |
| 20260906081324 | 75 | 123 | 0.9 | 1.7 | 0.00 | 0.00 | 0.00 | 97 | 1010.5 |
| 20260906080820 | 75 | 123 | 0.9 | 0.9 | 0.00 | 0.00 | 0.00 | 98 | 1010.5 |
| 20260906080316 | 75 | 123 | 0.0 | 0.9 | 0.00 | 0.00 | 0.00 | 97 | 1010.6 |
| 20260906075816 | 75 | 123 | 0.9 | 0.9 | 0.00 | 0.00 | 0.00 | 97 | 1010.4 |
| 20260906075316 | 75 | 123 | 1.7 | 0.9 | 0.00 | 0.00 | 0.00 | 97 | 1010.5 |
| 20260906074811 | 75 | 123 | 0.9 | 0.9 | 0.00 | 0.00 | 0.00 | 97 | 1010.6 |
| 20260906074311 | 75 | 123 | 0.9 | 0.9 | 0.00 | 0.00 | 0.00 | 97 | 1010.4 |
| 20260906073810 | 75 | 123 | 0.0 | 0.0 | 0.00 | 0.00 | 0.00 | 97 | 1010.4 |
| 20260906073305 | 75 | 123 | 0.0 | 0.0 | 0.00 | 0.00 | 0.00 | 97 | 1010.6 |
| 20260906072801 | 75 | 123 | 0.0 | 0.0 | 0.00 | 0.00 | 0.00 | 97 | 1010.4 |
| 20260906072257 | 75 | 123 | 1.7 | 1.7 | 0.00 | 0.00 | 0.00 | 97 | 1010.6 |
| 20260906071752 | 75 | 123 | 0.0 | 0.0 | 0.00 | 0.00 | 0.00 | 97 | 1010.4 |
| 20260906071252 | 75 | 123 | 0.9 | 0.9 | 0.00 | 0.00 | 0.00 | 97 | 1010.5 |
| 20260906070749 | 75 | 123 | 0.9 | 0.9 | 0.00 | 0.00 | 0.00 | 97 | 1010.6 |
| 20260906070244 | 75 | 123 | 0.0 | 0.0 | 0.00 | 0.00 | 0.00 | 97 | 1010.8 |
| 20260906065744 | 75 | 123 | 0.9 | 0.9 | 0.00 | 0.00 | 0.00 | 97 | 1010.6 |
| 20260906065239 | 75 | 123 | 0.9 | 1.7 | 0.00 | 0.00 | 0.00 | 97 | 1010.8 |
| 20260906064735 | 75 | 123 | 0.9 | 0.9 | 0.00 | 0.00 | 0.00 | 97 | 1010.8 |
| 20260906064230 | 75 | 123 | 0.0 | 0.0 | 0.00 | 0.00 | 0.00 | 97 | 1010.8 |
| 20260906063725 | 75 | 123 | 0.9 | 0.9 | 0.00 | 0.00 | 0.00 | 97 | 1010.8 |
| 20260906063221 | 75 | 123 | 0.9 | 0.9 | 0.00 | 0.00 | 0.00 | 96 | 1010.8 |
| 20260906062716 | 75 | 123 | 0.9 | 0.9 | 0.00 | 0.00 | 0.00 | 96 | 1010.9 |
| 20260906062215 | 75 | 123 | 0.9 | 0.9 | 0.00 | 0.00 | 0.00 | 96 | 1011.0 |
| 20260906061711 | 75 | 123 | 0.0 | 0.0 | 0.00 | 0.00 | 0.00 | 96 | 1011.3 |
| 20260906061207 | 76 | 123 | 0.9 | 0.9 | 0.00 | 0.00 | 0.00 | 96 | 1011.2 |
| 20260906060703 | 76 | 123 | 0.9 | 0.9 | 0.00 | 0.00 | 0.00 | 96 | 1011.3 |
| 20260906060200 | 75 | 123 | 0.0 | 0.0 | 0.00 | 0.00 | 0.00 | 96 | 1011.2 |
| 20260906055655 | 75 | 123 | 0.0 | 0.0 | 0.00 | 0.00 | 0.00 | 96 | 1011.3 |
| 20260906055150 | 76 | 123 | 0.0 | 0.0 | 0.00 | 0.00 | 0.00 | 96 | 1011.2 |
| 20260906054646 | 76 | 123 | 0.9 | 0.9 | 0.00 | 0.00 | 0.00 | 96 | 1011.3 |
| 20260906054140 | 76 | 123 | 0.0 | 0.0 | 0.00 | 0.00 | 0.00 | 96 | 1011.4 |
| 20260906053637 | 76 | 123 | 0.0 | 0.0 | 0.00 | 0.00 | 0.00 | 96 | 1011.5 |
| 20260906053137 | 76 | 123 | 0.0 | 0.9 | 0.00 | 0.00 | 0.00 | 96 | 1011.2 |
| 20260906052633 | 76 | 123 | 0.0 | 0.0 | 0.00 | 0.00 | 0.00 | 96 | 1011.2 |
| 20260906052129 | 76 | 123 | 0.0 | 0.9 | 0.00 | 0.00 | 0.00 | 96 | 1011.4 |
| 20260906051626 | 76 | 123 | 0.9 | 0.9 | 0.00 | 0.00 | 0.00 | 95 | 1011.3 |
| 20260906051125 | 76 | 123 | 0.9 | 0.9 | 0.00 | 0.00 | 0.00 | 95 | 1011.3 |
| 20260906050621 | 76 | 123 | 1.7 | 0.9 | 0.00 | 0.00 | 0.00 | 95 | 1011.5 |
| 20260906050116 | 76 | 123 | 1.7 | 1.7 | 0.00 | 0.00 | 0.00 | 95 | 1011.3 |
| 20260906045614 | 76 | 123 | 2.6 | 1.7 | 0.00 | 0.00 | 0.00 | 95 | 1011.3 |
| 20260906045110 | 76 | 123 | 1.7 | 0.9 | 0.00 | 0.00 | 0.00 | 95 | 1011.4 |
| 20260906044606 | 76 | 123 | 2.6 | 1.7 | 0.00 | 0.00 | 0.00 | 95 | 1011.2 |
| 20260906044101 | 76 | 123 | 0.9 | 0.9 | 0.00 | 0.00 | 0.00 | 94 | 1011.3 |
| 20260906043557 | 76 | 123 | 0.9 | 0.9 | 0.00 | 0.00 | 0.00 | 94 | 1011.4 |
| 20260906043052 | 76 | 123 | 0.9 | 0.9 | 0.00 | 0.00 | 0.00 | 93 | 1011.1 |
| 20260906042551 | 77 | 123 | 2.6 | 2.6 | 0.00 | 0.00 | 0.00 | 93 | 1011.3 |
| 20260906042046 | 77 | 123 | 0.0 | 0.9 | 0.00 | 0.00 | 0.00 | 93 | 1011.5 |
| 20260906041542 | 77 | 123 | 0.9 | 0.9 | 0.00 | 0.00 | 0.00 | 92 | 1011.6 |
| 20260906041037 | 77 | 123 | 0.0 | 0.9 | 0.00 | 0.00 | 0.00 | 92 | 1011.6 |
| 20260906040532 | 77 | 124 | 0.0 | 0.0 | 0.00 | 0.00 | 0.00 | 92 | 1011.4 |
| 20260906040028 | 76 | 92 | 0.9 | 0.9 | 0.00 | 0.49 | 0.49 | 93 | 1011.2 |
| 20260906035522 | 76 | 121 | 1.7 | 1.7 | 0.00 | 0.49 | 0.49 | 92 | 1011.6 |
| 20260906035019 | 76 | 92 | 1.7 | 1.7 | 0.00 | 0.49 | 0.49 | 92 | 1011.3 |
| 20260906034518 | 77 | 124 | 1.7 | 1.7 | 0.00 | 0.49 | 0.49 | 92 | 1011.4 |
| 20260906034013 | 77 | 123 | 1.7 | 1.7 | 0.00 | 0.49 | 0.49 | 91 | 1011.7 |
| 20260906033508 | 77 | 92 | 1.7 | 1.7 | 0.00 | 0.49 | 0.49 | 90 | 1011.9 |
| 20260906033004 | 77 | 122 | 0.9 | 1.7 | 0.00 | 0.49 | 0.49 | 90 | 1011.7 |
| 20260906032501 | 77 | 134 | 0.9 | 0.9 | 0.00 | 0.49 | 0.49 | 92 | 1011.5 |
| 20260906032000 | 77 | 134 | 0.0 | 0.0 | 0.00 | 0.49 | 0.49 | 91 | 1011.6 |
| 20260906031456 | 77 | 134 | 0.0 | 0.9 | 0.00 | 0.49 | 0.49 | 90 | 1012.0 |
| 20260906030951 | 77 | 134 | 0.9 | 1.7 | 0.00 | 0.49 | 0.49 | 90 | 1012.0 |
| 20260906030446 | 77 | 134 | 0.9 | 0.9 | 0.00 | 0.49 | 0.49 | 90 | 1012.0 |
| 20260906025940 | 77 | 134 | 0.0 | 0.0 | 0.00 | 0.49 | 0.49 | 89 | 1012.1 |
| 20260906025440 | 78 | 134 | 0.9 | 0.9 | 0.00 | 0.49 | 0.49 | 89 | 1012.1 |
| 20260906024939 | 78 | 134 | 0.0 | 0.0 | 0.00 | 0.49 | 0.49 | 87 | 1012.0 |
| 20260906024439 | 78 | 134 | 0.0 | 0.0 | 0.00 | 0.49 | 0.49 | 87 | 1012.0 |
| 20260906023939 | 78 | 134 | 0.0 | 0.0 | 0.00 | 0.49 | 0.49 | 89 | 1011.9 |
| 20260906023436 | 78 | 135 | 1.7 | 1.7 | 0.00 | 0.49 | 0.49 | 88 | 1012.0 |
| 20260906022936 | 78 | 151 | 0.9 | 0.9 | 0.00 | 0.49 | 0.49 | 88 | 1012.2 |
| 20260906022431 | 78 | 151 | 0.0 | 0.0 | 0.00 | 0.49 | 0.49 | 87 | 1012.4 |
| 20260906021926 | 78 | 151 | 0.0 | 0.9 | 0.00 | 0.49 | 0.49 | 88 | 1012.1 |
| 20260906021426 | 78 | 151 | 0.0 | 0.0 | 0.00 | 0.49 | 0.49 | 89 | 1012.0 |
| 20260906020926 | 78 | 151 | 0.0 | 1.7 | 0.00 | 0.49 | 0.49 | 90 | 1011.9 |
| 20260906020421 | 78 | 154 | 2.6 | 2.6 | 0.00 | 0.49 | 0.49 | 92 | 1011.5 |
| 20260906015921 | 78 | 154 | 0.9 | 0.9 | 0.00 | 0.49 | 0.49 | 92 | 1011.7 |
| 20260906015421 | 78 | 154 | 1.7 | 1.7 | 0.00 | 0.49 | 0.49 | 91 | 1011.6 |
| 20260906014920 | 77 | 139 | 1.7 | 1.7 | 0.00 | 0.49 | 0.49 | 93 | 1011.7 |
| 20260906014420 | 77 | 138 | 0.9 | 0.9 | 0.00 | 0.49 | 0.49 | 93 | 1011.6 |
| 20260906013916 | 77 | 138 | 0.0 | 0.0 | 0.00 | 0.49 | 0.49 | 92 | 1011.2 |
| 20260906013412 | 78 | 138 | 0.9 | 0.9 | 0.00 | 0.49 | 0.49 | 92 | 1011.2 |
| 20260906012907 | 78 | 138 | 1.7 | 1.7 | 0.00 | 0.49 | 0.49 | 92 | 1011.1 |
| 20260906012402 | 78 | 138 | 0.9 | 0.9 | 0.00 | 0.49 | 0.49 | 92 | 1011.2 |
| 20260906011901 | 78 | 138 | 0.0 | 0.0 | 0.00 | 0.49 | 0.49 | 92 | 1011.2 |
| 20260906011356 | 78 | 138 | 0.9 | 0.9 | 0.00 | 0.49 | 0.49 | 92 | 1010.6 |
| 20260906010852 | 78 | 138 | 0.9 | 0.9 | 0.00 | 0.49 | 0.49 | 91 | 1010.8 |
| 20260906010348 | 78 | 138 | 0.9 | 0.9 | 0.00 | 0.49 | 0.49 | 90 | 1010.6 |
| 20260906005843 | 78 | 138 | 0.0 | 0.0 | 0.00 | 0.49 | 0.49 | 91 | 1010.4 |
| 20260906005342 | 78 | 138 | 0.0 | 0.9 | 0.00 | 0.49 | 0.49 | 91 | 1010.3 |
| 20260906004841 | 78 | 138 | 0.9 | 0.9 | 0.00 | 0.49 | 0.49 | 91 | 1010.2 |
| 20260906004341 | 78 | 138 | 0.9 | 0.9 | 0.00 | 0.49 | 0.49 | 91 | 1010.0 |
| 20260906003836 | 78 | 138 | 1.7 | 1.7 | 0.00 | 0.49 | 0.49 | 91 | 1010.2 |
| 20260906003332 | 79 | 138 | 0.9 | 0.9 | 0.00 | 0.49 | 0.49 | 90 | 1010.3 |
| 20260906002827 | 79 | 138 | 0.0 | 0.9 | 0.00 | 0.49 | 0.49 | 89 | 1010.2 |
| 20260906002326 | 79 | 138 | 1.7 | 1.7 | 0.00 | 0.49 | 0.49 | 88 | 1010.0 |
| 20260906001822 | 79 | 138 | 0.9 | 0.9 | 0.00 | 0.49 | 0.49 | 86 | 1009.9 |
| 20260906001318 | 79 | 138 | 0.9 | 0.9 | 0.00 | 0.49 | 0.49 | 88 | 1010.0 |
| 20260906000813 | 80 | 138 | 0.9 | 0.9 | 0.00 | 0.49 | 0.49 | 87 | 1009.9 |
| 20260906000307 | 80 | 138 | 2.6 | 1.7 | 0.00 | 0.49 | 0.49 | 88 | 1010.0 |
| 20260905235802 | 80 | 139 | 1.7 | 1.7 | 0.00 | 0.49 | 0.49 | 87 | 1010.2 |
| 20260905235306 | 81 | 139 | 1.7 | 1.7 | 0.00 | 0.49 | 0.49 | 88 | 1010.2 |
| 20260905234758 | 81 | 139 | 0.9 | 0.9 | 0.00 | 0.49 | 0.49 | 86 | 1010.5 |
| 20260905234253 | 81 | 139 | 0.0 | 1.7 | 0.00 | 0.49 | 0.49 | 85 | 1010.4 |
| 20260905233748 | 82 | 139 | 1.7 | 1.7 | 0.00 | 0.49 | 0.49 | 85 | 1010.3 |
| 20260905233248 | 81 | 139 | 0.0 | 0.0 | 0.00 | 0.49 | 0.49 | 84 | 1010.3 |
| 20260905232747 | 81 | 139 | 0.0 | 0.9 | 0.00 | 0.49 | 0.49 | 85 | 1010.0 |
| 20260905232243 | 81 | 139 | 1.7 | 1.7 | 0.00 | 0.49 | 0.49 | 87 | 1010.3 |
| 20260905231739 | 81 | 139 | 1.7 | 1.7 | 0.00 | 0.49 | 0.49 | 86 | 1010.4 |
| 20260905231234 | 82 | 139 | 1.7 | 1.7 | 0.00 | 0.49 | 0.49 | 87 | 1010.4 |
| 20260905230730 | 82 | 139 | 0.9 | 1.7 | 0.00 | 0.49 | 0.49 | 87 | 1010.4 |
| 20260905230228 | 81 | 139 | 0.9 | 0.9 | 0.00 | 0.49 | 0.49 | 85 | 1010.3 |
| 20260905225727 | 81 | 139 | 1.7 | 1.7 | 0.00 | 0.49 | 0.49 | 86 | 1010.4 |
| 20260905225223 | 81 | 139 | 1.7 | 1.7 | 0.00 | 0.49 | 0.49 | 86 | 1010.4 |
| 20260905224722 | 81 | 139 | 0.9 | 0.9 | 0.00 | 0.49 | 0.49 | 87 | 1010.4 |
| 20260905224217 | 81 | 139 | 1.7 | 0.9 | 0.00 | 0.49 | 0.49 | 86 | 1010.2 |
| 20260905223714 | 81 | 139 | 0.9 | 0.9 | 0.00 | 0.49 | 0.49 | 86 | 1010.3 |
| 20260905223210 | 81 | 139 | 1.7 | 1.7 | 0.00 | 0.49 | 0.49 | 86 | 1010.3 |
| 20260905222706 | 82 | 138 | 1.7 | 1.7 | 0.00 | 0.49 | 0.49 | 86 | 1010.5 |
| 20260905222205 | 82 | 139 | 2.6 | 1.7 | 0.00 | 0.49 | 0.49 | 84 | 1010.8 |
| 20260905221701 | 82 | 139 | 0.0 | 0.9 | 0.00 | 0.49 | 0.49 | 86 | 1010.5 |
| 20260905221158 | 82 | 139 | 1.7 | 1.7 | 0.00 | 0.49 | 0.49 | 84 | 1010.4 |
| 20260905220653 | 82 | 139 | 1.7 | 1.7 | 0.00 | 0.49 | 0.49 | 83 | 1010.5 |
| 20260905220149 | 83 | 139 | 0.9 | 1.7 | 0.00 | 0.49 | 0.49 | 81 | 1010.4 |
| 20260905215648 | 83 | 138 | 0.0 | 0.9 | 0.00 | 0.49 | 0.49 | 72 | 1010.4 |
| 20260905215144 | 84 | 136 | 1.7 | 2.6 | 0.00 | 0.49 | 0.49 | 79 | 1010.4 |
| 20260905214640 | 86 | 157 | 0.9 | 1.7 | 0.00 | 0.49 | 0.49 | 69 | 1010.5 |
| 20260905214141 | 86 | 252 | 0.9 | 0.9 | 0.00 | 0.49 | 0.49 | 69 | 1010.3 |
| 20260905213636 | 85 | 114 | 0.9 | 0.9 | 0.00 | 0.49 | 0.49 | 68 | 1010.8 |
| 20260905213131 | 86 | 179 | 0.9 | 1.7 | 0.00 | 0.49 | 0.49 | 66 | 1010.6 |
| 20260905212627 | 87 | 149 | 3.5 | 4.3 | 0.00 | 0.49 | 0.49 | 64 | 1010.5 |
| 20260905212126 | 87 | 241 | 0.0 | 4.3 | 0.00 | 0.49 | 0.49 | 66 | 1010.6 |
| 20260905211621 | 86 | 235 | 0.9 | 2.6 | 0.00 | 0.49 | 0.49 | 67 | 1010.6 |
| 20260905211116 | 85 | 301 | 0.9 | 1.7 | 0.00 | 0.49 | 0.49 | 68 | 1010.6 |
| 20260905210613 | 85 | 161 | 0.9 | 0.9 | 0.00 | 0.49 | 0.49 | 70 | 1011.0 |
| 20260905210107 | 85 | 162 | 0.9 | 0.9 | 0.00 | 0.49 | 0.49 | 73 | 1011.1 |
| 20260905205607 | 84 | 158 | 0.9 | 1.7 | 0.00 | 0.49 | 0.49 | 74 | 1011.0 |
| 20260905205106 | 85 | 247 | 1.7 | 2.6 | 0.00 | 0.49 | 0.49 | 71 | 1010.9 |
| 20260905204601 | 84 | 198 | 0.9 | 1.7 | 0.00 | 0.49 | 0.49 | 72 | 1011.2 |
| 20260905204056 | 83 | 178 | 2.6 | 4.3 | 0.00 | 0.49 | 0.49 | 78 | 1010.9 |
| 20260905203556 | 82 | 197 | 0.0 | 1.7 | 0.00 | 0.49 | 0.49 | 78 | 1010.9 |
| 20260905203051 | 83 | 173 | 1.7 | 4.3 | 0.00 | 0.49 | 0.49 | 77 | 1011.2 |
| 20260905202546 | 82 | 149 | 0.9 | 0.9 | 0.00 | 0.49 | 0.49 | 80 | 1011.2 |
| 20260905202042 | 82 | 123 | 1.7 | 1.7 | 0.00 | 0.49 | 0.49 | 80 | 1011.3 |
| 20260905201538 | 81 | 259 | 0.9 | 2.6 | 0.00 | 0.49 | 0.49 | 81 | 1011.4 |
| 20260905201037 | 81 | 175 | 0.9 | 2.6 | 0.00 | 0.49 | 0.49 | 82 | 1011.8 |
| 20260905200532 | 81 | 214 | 0.9 | 6.1 | 0.00 | 0.49 | 0.49 | 83 | 1011.6 |
| 20260905200032 | 81 | 98 | 3.5 | 6.1 | 0.00 | 0.49 | 0.49 | 87 | 1011.8 |
| 20260905195526 | 81 | 147 | 4.3 | 5.2 | 0.00 | 0.49 | 0.49 | 86 | 1011.8 |
| 20260905195022 | 81 | 84 | 0.9 | 4.3 | 0.00 | 0.49 | 0.49 | 87 | 1011.9 |
| 20260905194522 | 81 | 140 | 5.2 | 6.1 | 0.00 | 0.49 | 0.49 | 85 | 1012.2 |
| 20260905194021 | 80 | 120 | 0.0 | 5.2 | 0.00 | 0.49 | 0.49 | 86 | 1012.4 |
| 20260905193522 | 80 | 160 | 1.7 | 4.3 | 0.00 | 0.49 | 0.49 | 88 | 1012.5 |
| 20260905193017 | 80 | 130 | 2.6 | 4.3 | 0.00 | 0.49 | 0.49 | 89 | 1012.6 |
| 20260905192512 | 79 | 153 | 1.7 | 2.6 | 0.00 | 0.49 | 0.49 | 89 | 1012.5 |
| 20260905192009 | 79 | 167 | 1.7 | 1.7 | 0.00 | 0.49 | 0.49 | 89 | 1012.6 |
| 20260905191507 | 80 | 133 | 1.7 | 2.6 | 0.00 | 0.49 | 0.49 | 87 | 1012.4 |
| 20260905191006 | 79 | 170 | 0.9 | 2.6 | 0.00 | 0.49 | 0.49 | 90 | 1012.5 |
| 20260905190504 | 78 | 145 | 0.9 | 1.7 | 0.00 | 0.49 | 0.49 | 90 | 1012.5 |
| 20260905190004 | 78 | 121 | 1.7 | 1.7 | 0.00 | 0.49 | 0.49 | 90 | 1012.5 |
| 20260905185458 | 78 | 145 | 0.9 | 2.6 | 0.00 | 0.49 | 0.49 | 90 | 1012.4 |
| 20260905184957 | 78 | 154 | 0.9 | 1.7 | 0.00 | 0.49 | 0.49 | 89 | 1012.7 |
| 20260905184452 | 78 | 171 | 0.0 | 0.9 | 0.00 | 0.49 | 0.49 | 92 | 1012.6 |
| 20260905183951 | 78 | 168 | 0.0 | 0.9 | 0.00 | 0.49 | 0.49 | 92 | 1012.6 |
| 20260905183450 | 78 | 254 | 2.6 | 2.6 | 0.00 | 0.49 | 0.49 | 91 | 1012.8 |
| 20260905182945 | 78 | 195 | 0.0 | 1.7 | 0.00 | 0.49 | 0.49 | 92 | 1012.6 |
| 20260905182445 | 77 | 200 | 0.0 | 1.7 | 0.00 | 0.49 | 0.49 | 92 | 1012.9 |
| 20260905181940 | 77 | 233 | 0.9 | 2.6 | 0.00 | 0.49 | 0.49 | 91 | 1012.9 |
| 20260905181435 | 77 | 166 | 0.9 | 1.7 | 0.00 | 0.49 | 0.49 | 91 | 1013.1 |
| 20260905180934 | 77 | 171 | 2.6 | 2.6 | 0.00 | 0.49 | 0.49 | 93 | 1012.9 |
| 20260905180429 | 78 | 193 | 1.7 | 2.6 | 0.00 | 0.49 | 0.49 | 92 | 1013.3 |
| 20260905175924 | 78 | 153 | 2.6 | 4.3 | 0.05 | 0.49 | 0.49 | 91 | 1013.4 |
| 20260905175423 | 78 | 276 | 5.2 | 7.8 | 0.17 | 0.49 | 0.49 | 91 | 1013.5 |
| 20260905174919 | 77 | 208 | 0.9 | 4.3 | 0.12 | 0.48 | 0.48 | 93 | 1013.6 |
| 20260905174415 | 77 | 141 | 1.7 | 2.6 | 0.07 | 0.46 | 0.46 | 92 | 1013.7 |
| 20260905173910 | 76 | 252 | 2.6 | 4.3 | 0.12 | 0.45 | 0.45 | 91 | 1013.6 |
| 20260905173406 | 76 | 260 | 1.7 | 5.2 | 0.28 | 0.45 | 0.45 | 90 | 1013.8 |
| 20260905172907 | 76 | 218 | 2.6 | 4.3 | 0.47 | 0.43 | 0.43 | 92 | 1013.5 |
| 20260905172404 | 75 | 136 | 0.9 | 2.6 | 0.54 | 0.40 | 0.40 | 93 | 1013.6 |
| 20260905171900 | 76 | 105 | 1.7 | 2.6 | 0.24 | 0.34 | 0.34 | 92 | 1013.5 |
| 20260905171357 | 76 | 155 | 3.5 | 4.3 | 0.07 | 0.31 | 0.31 | 92 | 1013.5 |
| 20260905170853 | 77 | 132 | 3.5 | 2.6 | 0.05 | 0.30 | 0.30 | 87 | 1013.7 |
| 20260905170349 | 77 | 237 | 3.5 | 7.0 | 0.07 | 0.29 | 0.29 | 88 | 1013.5 |
| 20260905165848 | 77 | 224 | 0.9 | 1.7 | 0.31 | 0.29 | 0.29 | 83 | 1013.2 |
| 20260905165343 | 77 | 157 | 1.7 | 7.0 | 0.38 | 0.27 | 0.27 | 84 | 1013.5 |
| 20260905164838 | 78 | 171 | 2.6 | 4.3 | 0.24 | 0.23 | 0.23 | 88 | 1013.6 |
| 20260905164333 | 79 | 176 | 2.6 | 4.3 | 0.54 | 0.21 | 0.21 | 84 | 1013.8 |
| 20260905163828 | 81 | 160 | 7.0 | 8.7 | 1.09 | 0.18 | 0.18 | 86 | 1014.1 |
| 20260905163325 | 84 | 126 | 0.9 | 0.9 | 0.59 | 0.10 | 0.10 | 85 | 1013.8 |
| 20260905162821 | 86 | 130 | 1.7 | 2.6 | 0.00 | 0.00 | 0.00 | 74 | 1013.6 |
| 20260905162320 | 87 | 123 | 1.7 | 2.6 | 0.00 | 0.00 | 0.00 | 69 | 1013.3 |
| 20260905161815 | 87 | 217 | 1.7 | 5.2 | 0.00 | 0.00 | 0.00 | 68 | 1013.2 |
| 20260905161314 | 87 | 188 | 0.9 | 1.7 | 0.00 | 0.00 | 0.00 | 68 | 1013.5 |
| 20260905160812 | 87 | 261 | 3.5 | 5.2 | 0.00 | 0.00 | 0.00 | 67 | 1013.3 |
| 20260905160307 | 87 | 138 | 0.9 | 1.7 | 0.00 | 0.00 | 0.00 | 68 | 1013.2 |
| 20260905155801 | 87 | 182 | 1.7 | 6.1 | 0.00 | 0.00 | 0.00 | 68 | 1013.3 |
| 20260905155255 | 87 | 250 | 3.5 | 4.3 | 0.00 | 0.00 | 0.00 | 69 | 1013.3 |
| 20260905154754 | 88 | 225 | 2.6 | 5.2 | 0.00 | 0.00 | 0.00 | 68 | 1013.3 |
| 20260905154251 | 88 | 212 | 0.9 | 6.1 | 0.00 | 0.00 | 0.00 | 68 | 1013.1 |
| 20260905153746 | 88 | 197 | 0.9 | 1.7 | 0.00 | 0.00 | 0.00 | 67 | 1013.1 |
| 20260905153242 | 87 | 196 | 3.5 | 5.2 | 0.00 | 0.00 | 0.00 | 67 | 1013.2 |
| 20260905152737 | 88 | 210 | 2.6 | 2.6 | 0.00 | 0.00 | 0.00 | 67 | 1013.1 |
| 20260905152236 | 87 | 215 | 1.7 | 6.1 | 0.00 | 0.00 | 0.00 | 68 | 1013.4 |
| 20260905151736 | 86 | 176 | 1.7 | 1.7 | 0.00 | 0.00 | 0.00 | 69 | 1013.3 |
| 20260905151233 | 86 | 231 | 2.6 | 5.2 | 0.00 | 0.00 | 0.00 | 69 | 1013.2 |
| 20260905150732 | 86 | 259 | 1.7 | 2.6 | 0.00 | 0.00 | 0.00 | 69 | 1013.4 |
| 20260905150231 | 85 | 257 | 2.6 | 1.7 | 0.00 | 0.00 | 0.00 | 70 | 1013.2 |
| 20260905145729 | 84 | 255 | 2.6 | 4.3 | 0.00 | 0.00 | 0.00 | 72 | 1013.4 |
| 20260905145224 | 84 | 252 | 3.5 | 5.2 | 0.00 | 0.00 | 0.00 | 73 | 1013.4 |
| 20260905144723 | 84 | 279 | 3.5 | 4.3 | 0.00 | 0.00 | 0.00 | 75 | 1013.2 |
| 20260905144218 | 84 | 279 | 3.5 | 4.3 | 0.00 | 0.00 | 0.00 | 76 | 1013.4 |
| 20260905143717 | 84 | 281 | 4.3 | 5.2 | 0.00 | 0.00 | 0.00 | 75 | 1013.4 |
| 20260905143217 | 85 | 230 | 1.7 | 1.7 | 0.00 | 0.00 | 0.00 | 72 | 1013.3 |
| 20260905142715 | 84 | 226 | 1.7 | 1.7 | 0.00 | 0.00 | 0.00 | 74 | 1013.2 |
| 20260905142210 | 83 | 229 | 1.7 | 1.7 | 0.00 | 0.00 | 0.00 | 75 | 1013.3 |
| 20260905141706 | 83 | 230 | 0.9 | 0.9 | 0.00 | 0.00 | 0.00 | 76 | 1013.2 |